Temperature
3 3 3 3 3 3 3 3 3 3 3 3 3 4 4 4 4 4 4 4 4 4 4 4 4 5 5 5 5 5 5 5 5 5 6 6 6 7 7 7 7 7 7
2 2 2 3 2 2 2 2 3 3 3 3 3 3 3 3 3 3 3 3 3 3 3 4 4 4 4 4 4 4 4 5 4 4 4 4 5 6 6 7 7 7 7
2 2 2 2 2 2 2 2 2 2 2 2 2 2 2 2 3 3 3 3 3 2 3 3 3 3 3 3 3 3 3 4 4 4 3 3 3 3 5 6 6 6 6
1 2 2 2 2 2 2 2 1 1 2 2 2 1 1 2 2 2 2 2 2 2 2 2 2 2 2 2 3 3 3 3 3 3 3 3 3 3 3 4 5 5 5
1 1 1 2 2 1 1 1 1 1 1 1 1 1 1 1 1 1 1 1 1 1 1 1 1 2 2 2 2 2 2 2 2 2 2 3 3 2 2 2 3 4 5
0 1 1 1 1 1 1 1 1 1 1 1 1 1 1 1 1 1 1 1 1 1 1 1 1 1 1 1 1 1 1 1 1 2 2 2 2 2 2 2 2 3 4
0 0 0 1 1 1 0 0 0 0 0 0 0 0 0 0 0 0 0 0 0 0 0 0 0 0 0 1 1 1 1 1 1 1 1 1 1 2 2 2 1 1 2
0 -0 0 0 0 0 0 -0 -0 -0 -0 -0 -0 -0 -0 -0 -0 -0 -1 -1 -1 -1 -1 -1 -0 -0 -0 0 0 0 0 0 0 1 1 1 1 1 1 1 1 1 1
-0 -0 -0 -0 -0 0 -0 -0 -1 -1 -1 -1 -1 -1 -1 -1 -1 -1 -1 -1 -1 -1 -1 -1 -1 -1 -1 -1 -0 -0 -0 -0 0 0 0 0 0 0 1 1 1 1 1
-1 -1 -1 -1 -0 -0 -0 -1 -1 -1 -1 -1 -1 -1 -1 -1 -1 -1 -1 -1 -2 -1 -1 -1 -1 -1 -1 -1 -1 -1 -1 -0 -0 -0 -0 -0 -0 -0 0 0 0 0 0
-1 -1 -1 -1 -1 -1 -1 -1 -1 -1 -2 -2 -2 -2 -2 -2 -2 -2 -2 -2 -2 -2 -2 -2 -2 -2 -2 -2 -1 -1 -1 -1 -1 -1 -1 -1 -1 -1 -0 -0 -0 -0 -0
-1 -1 -1 -1 -1 -1 -1 -2 -2 -2 -2 -2 -2 -2 -3 -3 -3 -2 -3 -3 -3 -3 -3 -3 -3 -2 -2 -2 -2 -2 -2 -2 -1 -1 -1 -1 -1 -1 -1 -1 -1 -1 -1
-2 -2 -2 -2 -2 -2 -2 -2 -2 -2 -3 -3 -3 -3 -3 -3 -3 -3 -3 -3 -3 -3 -3 -3 -3 -3 -3 -3 -3 -2 -2 -2 -2 -2 -2 -2 -2 -1 -1 -1 -1 -1 -1
-2 -2 -2 -2 -2 -3 -3 -3 -3 -3 -3 -3 -3 -3 -4 -4 -4 -4 -4 -4 -4 -4 -4 -4 -3 -3 -3 -3 -3 -3 -3 -3 -2 -2 -2 -2 -2 -2 -2 -2 -2 -2 -2
-3 -3 -3 -3 -3 -3 -3 -3 -3 -3 -4 -4 -4 -4 -4 -4 -4 -4 -4 -5 -5 -4 -4 -4 -4 -4 -4 -4 -4 -4 -4 -3 -3 -3 -3 -3 -3 -2 -2 -2 -2 -2 -2
-3 -3 -3 -4 -4 -4 -4 -4 -4 -4 -4 -4 -5 -5 -5 -5 -5 -5 -5 -5 -5 -5 -5 -5 -5 -4 -4 -4 -4 -4 -4 -4 -4 -3 -3 -3 -3 -3 -3 -3 -3 -3 -3
-3 -4 -4 -4 -4 -4 -4 -5 -5 -5 -5 -5 -5 -5 -5 -5 -5 -5 -5 -6 -5 -5 -5 -5 -5 -5 -5 -5 -5 -5 -5 -4 -4 -4 -4 -4 -4 -4 -3 -3 -3 -3 -3
-4 -4 -4 -4 -4 -5 -5 -5 -5 -5 -5 -5 -6 -6 -6 -6 -6 -6 -6 -6 -6 -6 -6 -6 -6 -6 -5 -5 -5 -5 -5 -5 -5 -5 -4 -4 -4 -4 -4 -4 -4 -4 -4
-4 -4 -4 -5 -5 -5 -5 -6 -6 -6 -6 -6 -6 -6 -6 -6 -6 -6 -6 -6 -6 -6 -6 -6 -6 -6 -6 -6 -6 -6 -6 -6 -5 -5 -5 -5 -5 -5 -5 -5 -4 -4 -4
-5 -5 -5 -5 -5 -6 -6 -6 -7 -7 -7 -7 -7 -7 -7 -7 -7 -7 -7 -7 -7 -7 -7 -7 -7 -7 -6 -6 -6 -6 -6 -6 -6 -6 -6 -6 -6 -5 -5 -5 -5 -5 -4
-5 -5 -6 -6 -6 -6 -7 -7 -7 -7 -7 -7 -7 -7 -7 -7 -7 -7 -7 -7 -8 -7 -7 -7 -7 -7 -7 -7 -7 -7 -7 -7 -7 -6 -6 -6 -6 -6 -6 -6 -5 -5 -5
-6 -6 -6 -7 -7 -7 -7 -8 -8 -8 -8 -8 -8 -8 -7 -7 -7 -8 -8 -8 -8 -8 -8 -8 -8 -8 -8 -7 -7 -7 -7 -7 -7 -7 -7 -7 -7 -7 -6 -6 -6 -6 -6
-7 -7 -7 -7 -8 -8 -8 -8 -8 -8 -8 -8 -8 -8 -8 -8 -8 -8 -8 -8 -8 -8 -8 -8 -8 -8 -8 -8 -8 -8 -8 -8 -8 -8 -8 -7 -7 -7 -7 -7 -7 -7 -6
-7 -8 -8 -8 -8 -8 -8 -9 -9 -9 -9 -9 -8 -8 -8 -8 -9 -9 -9 -9 -9 -9 -9 -9 -9 -9 -9 -9 -8 -8 -8 -8 -8 -8 -8 -8 -8 -8 -8 -7 -7 -7 -7
-8 -8 -9 -9 -9 -9 -9 -9 -9 -10 -9 -9 -9 -9 -9 -9 -9 -9 -9 -9 -9 -9 -9 -9 -9 -9 -9 -9 -9 -9 -8 -8 -8 -8 -8 -8 -8 -8 -8 -8 -8 -8 -8
-9 -9 -9 -9 -10 -10 -10 -10 -10 -10 -10 -10 -10 -10 -9 -9 -10 -10 -9 -9 -9 -9 -9 -9 -9 -9 -9 -9 -9 -9 -9 -9 -9 -9 -9 -9 -9 -9 -9 -9 -9 -9 -8
Wind_Speed
6 5 5 5 4 3 3 3 3 3 2 1 1 1 1 0 1 3 2 2 3 3 3 3 3 2 1 1 1 1 1 1 1 1 2 2 2 2 1 1 1 1 1
5 5 5 5 5 4 4 3 4 3 3 3 3 3 2 2 1 2 3 3 3 3 3 3 2 2 1 1 1 1 1 1 1 1 1 1 2 2 2 2 2 1 1
8 7 5 6 5 5 5 4 4 4 4 3 2 1 1 0 0 1 1 3 3 3 3 3 3 3 1 1 1 1 1 1 1 1 1 1 2 3 2 1 1 1 1
7 7 6 7 7 6 5 4 4 3 4 4 3 4 3 2 2 2 2 3 3 3 3 3 3 3 2 2 2 1 1 1 2 2 1 2 1 1 2 2 2 2 2
7 7 7 8 7 6 5 4 4 4 4 4 5 5 4 3 2 2 2 2 3 2 3 3 2 2 2 2 2 2 2 2 2 2 2 2 2 2 2 4 4 3 2
6 6 5 5 5 5 4 4 4 4 4 4 5 5 5 4 3 3 3 2 2 2 2 3 3 2 2 2 2 3 2 2 2 2 2 2 2 2 2 3 4 5 4
6 5 5 5 5 5 5 5 5 4 4 5 6 6 6 6 6 5 4 3 2 2 3 3 3 3 3 3 3 2 3 3 3 3 3 3 4 3 3 4 4 5 5
5 6 6 6 6 6 5 5 6 5 5 5 6 5 5 4 4 5 5 4 4 4 4 3 3 4 4 4 3 3 4 3 4 4 4 4 4 3 3 4 4 5 5
4 5 5 5 5 6 6 6 6 5 5 6 6 5 5 4 5 5 4 4 4 4 4 4 4 4 4 4 4 3 4 4 4 5 5 4 4 3 4 4 4 5 6
4 4 4 4 5 5 5 5 5 5 5 5 5 5 4 5 5 4 4 4 4 4 4 4 4 4 5 5 4 4 4 5 5 4 5 5 4 4 4 4 4 5 5
5 5 5 4 3 2 3 4 4 4 4 5 4 4 4 5 4 4 5 4 4 4 4 5 5 5 5 4 4 4 5 6 5 5 5 6 5 5 4 4 4 5 4
4 5 4 3 2 3 3 4 4 5 5 4 4 4 4 4 4 4 5 4 4 5 5 5 5 5 5 5 5 6 6 6 6 6 6 6 5 6 5 4 5 5 5
4 4 3 3 3 3 3 4 4 4 3 3 4 4 4 4 5 5 5 5 5 5 5 5 5 6 6 5 5 6 6 7 7 7 7 7 6 6 5 6 6 5 5
5 5 4 3 3 3 3 3 4 3 3 3 4 4 5 5 5 5 5 5 5 5 5 5 6 6 6 6 6 6 6 6 7 7 7 7 7 7 7 7 6 6 5
5 5 5 4 4 3 3 3 4 3 3 3 4 5 5 5 5 5 5 5 5 5 5 5 5 5 5 6 6 6 6 6 6 6 6 7 8 9 8 7 6 6 5
6 5 5 4 4 4 4 4 4 4 3 4 4 4 4 4 5 5 5 5 5 5 5 5 5 6 6 8 10 8 6 6 6 6 6 6 7 8 9 10 9 8 7
6 5 5 4 4 4 4 4 4 3 3 4 4 4 4 5 6 5 5 5 5 5 5 5 5 6 7 10 10 10 7 6 6 6 6 5 6 7 6 8 9 8 8
5 5 4 4 4 4 3 3 3 2 3 3 4 4 4 5 5 5 6 6 5 5 5 6 6 6 7 9 10 10 6 5 6 6 6 6 6 6 7 6 6 6 6
4 4 3 3 3 3 3 2 3 2 2 3 4 4 4 5 5 5 6 5 5 5 5 6 6 6 7 9 9 9 5 5 6 6 6 6 6 9 9 7 6 6 6
3 3 2 2 2 3 2 2 3 3 3 4 4 4 4 5 5 6 5 5 5 5 5 6 5 6 6 9 9 9 4 5 5 5 5 7 8 9 9 6 6 7 6
3 2 2 2 2 3 2 2 3 4 5 4 4 4 4 5 5 5 5 4 5 5 5 6 5 6 6 7 9 9 4 5 5 4 4 5 8 9 10 9 6 8 7
3 2 2 3 3 3 2 3 4 5 4 4 3 4 4 4 3 3 4 4 4 4 5 5 5 4 5 6 7 8 8 6 4 4 4 5 8 9 9 7 6 8 6
3 2 1 3 4 3 3 3 5 5 4 3 3 3 4 3 3 3 4 3 4 4 4 4 4 4 4 4 7 8 8 7 5 4 6 7 8 7 5 6 6 5 3
3 2 2 2 4 4 4 4 4 4 4 3 3 3 3 2 3 3 3 3 3 4 4 4 4 4 4 4 4 4 5 6 5 4 5 6 6 5 5 4 3 3 3
3 2 2 2 3 4 4 5 4 4 4 4 3 3 3 2 2 3 2 3 3 4 4 4 4 4 4 5 7 5 4 4 4 3 2 1 2 2 2 2 2 2 2
2 2 2 3 3 3 4 4 4 3 3 4 4 3 2 2 2 2 3 5 4 5 5 5 4 4 5 7 6 6 5 5 3 2 1 2 2 2 2 2 3 2 2
Wind_Direction
226 206 195 184 178 187 192 196 190 205 198 176 184 179 210 261 337 347 6 11 11 11 13 4 352 358 345 321 338 355 346 334 345 4 340 327 293 250 243 261 269 292 266
223 210 206 189 188 196 202 206 205 216 215 192 199 191 197 206 257 319 352 8 14 7 7 5 341 334 328 330 330 357 330 331 5 32 5 329 324 317 290 246 218 250 345
214 210 214 208 197 202 206 214 214 227 215 185 175 172 147 246 303 302 318 344 351 352 349 340 333 331 307 257 292 290 315 289 305 322 159 193 243 309 299 284 250 240 246
220 211 218 214 208 211 206 211 215 231 209 181 180 179 188 216 246 242 253 311 329 336 337 330 327 319 313 252 260 297 286 240 270 290 279 259 238 236 284 301 293 267 251
218 215 221 213 211 207 203 210 216 225 206 193 191 188 198 219 238 234 247 280 313 318 319 314 308 310 307 272 260 276 260 242 256 271 289 287 279 247 246 269 287 298 262
222 217 222 212 205 202 199 205 214 224 206 202 200 194 199 209 228 238 234 246 263 284 301 306 306 309 304 291 265 262 261 254 253 263 273 278 257 245 257 257 269 281 284
216 215 215 217 211 207 204 204 209 224 211 205 207 203 204 206 216 224 223 233 246 260 264 290 288 293 296 294 293 256 258 254 251 253 265 272 266 263 265 259 267 283 291
224 220 215 218 217 215 212 210 213 225 219 210 212 206 206 209 221 223 221 225 233 244 254 262 271 280 284 289 291 264 251 252 250 257 259 266 271 265 260 255 260 272 279
239 232 226 224 220 215 214 207 208 221 216 213 209 207 206 213 226 224 227 230 238 252 250 253 261 274 277 276 271 259 248 249 249 251 252 258 266 262 263 255 244 249 266
257 247 237 234 227 216 212 203 205 216 222 209 207 213 206 217 224 218 224 233 241 247 247 249 251 260 266 268 262 265 252 246 250 252 252 259 262 260 257 253 254 251 256
255 255 250 244 231 215 218 210 208 213 227 215 207 206 213 223 219 222 228 235 243 243 242 247 250 252 256 258 252 259 257 244 248 251 253 260 264 257 253 251 249 254 256
264 261 241 238 235 234 240 219 215 223 219 210 211 210 216 219 223 233 238 242 241 245 246 247 246 249 253 250 249 256 263 245 244 245 248 256 261 257 260 253 250 252 255
280 280 253 234 241 246 248 237 217 219 217 206 210 215 223 227 231 234 238 239 240 246 250 245 242 246 247 247 248 248 256 248 243 244 245 252 254 257 256 253 250 251 257
279 277 267 261 257 255 257 263 241 229 219 209 213 224 229 231 235 234 233 237 239 240 243 248 247 248 250 252 253 252 253 252 247 247 248 251 249 250 253 254 248 246 249
282 275 271 269 272 274 272 270 266 245 230 221 224 236 243 239 236 238 235 238 240 247 246 249 251 252 250 248 248 249 254 254 251 252 252 253 259 263 259 260 251 244 246
269 273 275 273 272 272 274 274 272 259 239 232 238 241 241 248 238 238 237 237 238 240 241 242 247 255 261 269 270 265 257 256 250 254 258 262 264 267 273 275 274 261 251
274 274 271 268 270 270 272 268 265 264 244 242 246 244 243 251 245 239 237 237 238 241 244 246 248 253 260 271 272 272 266 254 247 249 253 264 267 275 269 277 281 276 271
279 280 279 285 290 292 292 289 288 271 258 256 257 253 253 255 252 236 238 238 238 239 245 252 252 255 264 273 274 274 268 256 247 244 245 247 254 260 265 265 266 260 261
278 278 280 289 298 298 297 308 306 296 281 269 266 261 255 257 253 243 241 242 239 243 246 250 247 253 267 274 273 274 257 253 252 251 252 249 248 263 272 268 264 266 268
305 304 317 328 320 317 325 323 309 304 291 281 274 268 260 256 252 249 249 248 243 247 252 259 253 251 258 270 273 271 252 251 255 252 253 260 261 266 272 262 258 262 265
320 334 358 343 324 332 346 330 318 301 297 297 287 281 271 262 254 245 242 242 244 246 249 256 259 252 256 268 273 273 256 246 252 254 256 259 267 272 275 278 266 269 272
335 1 11 347 344 350 352 331 315 311 314 307 294 290 283 273 265 245 247 240 232 237 243 249 260 256 258 268 270 274 273 270 257 259 261 265 273 278 282 285 284 296 296
326 352 14 351 346 349 351 331 319 324 326 320 306 299 295 281 276 260 248 236 226 229 242 243 253 263 263 265 277 277 277 276 272 264 270 278 283 287 286 289 295 298 293
328 344 9 354 340 342 343 334 329 337 339 323 312 309 301 290 287 275 257 241 232 230 235 242 253 264 268 263 261 256 263 269 272 270 270 278 284 293 293 292 292 284 274
332 340 335 328 333 343 345 342 344 346 343 335 323 318 310 287 284 285 273 265 250 239 236 239 244 250 256 265 269 269 263 253 251 260 265 266 262 265 276 288 286 289 292
335 337 337 340 340 345 343 343 345 348 348 344 343 338 328 317 306 316 334 337 323 313 302 292 286 282 283 285 285 287 285 285 268 265 240 255 261 264 271 283 295 297 294
Height
1508 1510 1511 1512 1513 1513 1513 1514 1515 1515 1515 1515 1515 1516 1516 1517 1518 1518 1518 1518 1518 1518 1518 1518 1518 1518 1518 1518 1519 1519 1520 1520 1520 1520 1519 1520 1521 1521 1522 1523 1523 1524 1525
1503 1505 1506 1508 1509 1509 1510 1510 1511 1511 1512 1512 1513 1513 1514 1514 1515 1515 1515 1515 1515 1515 1515 1515 1515 1515 1515 1516 1516 1516 1516 1516 1517 1517 1516 1516 1517 1517 1518 1518 1519 1520 1521
1498 1499 1501 1503 1504 1505 1505 1506 1507 1508 1508 1509 1509 1510 1511 1511 1511 1511 1511 1512 1512 1512 1512 1512 1512 1512 1512 1512 1513 1513 1513 1513 1514 1515 1516 1515 1514 1513 1513 1514 1515 1516 1516
1494 1495 1497 1498 1499 1500 1501 1502 1503 1503 1504 1505 1506 1506 1506 1506 1507 1507 1508 1509 1509 1509 1509 1509 1509 1509 1509 1509 1509 1510 1510 1511 1511 1512 1513 1514 1512 1512 1510 1510 1511 1512 1512
1490 1491 1491 1493 1494 1496 1497 1498 1498 1499 1500 1501 1502 1502 1503 1503 1504 1504 1504 1505 1505 1505 1506 1505 1505 1505 1505 1506 1506 1506 1507 1507 1508 1508 1508 1509 1510 1509 1509 1506 1506 1507 1508
1486 1486 1488 1489 1490 1491 1492 1493 1494 1494 1495 1496 1497 1498 1498 1499 1499 1500 1500 1500 1501 1501 1501 1501 1501 1501 1501 1502 1502 1503 1503 1503 1504 1504 1505 1505 1505 1505 1505 1503 1502 1502 1502
1481 1482 1482 1483 1484 1485 1487 1488 1489 1489 1491 1492 1492 1493 1494 1495 1495 1495 1495 1495 1496 1496 1497 1497 1497 1497 1497 1498 1498 1499 1499 1499 1499 1500 1500 1501 1501 1501 1501 1501 1499 1498 1497
1477 1477 1478 1478 1479 1481 1482 1482 1483 1484 1486 1487 1488 1489 1490 1490 1491 1491 1490 1491 1491 1492 1492 1493 1493 1493 1493 1494 1494 1494 1495 1495 1495 1495 1496 1496 1496 1497 1497 1497 1496 1495 1493
1473 1473 1473 1474 1475 1476 1477 1478 1479 1480 1481 1482 1483 1484 1485 1486 1486 1486 1486 1486 1487 1487 1488 1489 1489 1489 1489 1489 1490 1490 1490 1490 1490 1491 1491 1492 1492 1492 1492 1493 1493 1493 1489
1471 1470 1470 1470 1471 1471 1472 1473 1474 1475 1476 1477 1478 1479 1480 1481 1481 1481 1481 1482 1482 1482 1483 1483 1484 1484 1484 1485 1485 1485 1485 1486 1486 1486 1486 1486 1487 1487 1487 1487 1487 1487 1487
1469 1467 1467 1467 1467 1467 1468 1468 1469 1470 1471 1472 1473 1473 1475 1476 1476 1476 1476 1476 1477 1477 1478 1478 1479 1479 1479 1480 1480 1480 1480 1480 1480 1481 1481 1481 1481 1482 1481 1481 1481 1481 1481
1467 1465 1464 1464 1463 1464 1464 1464 1464 1465 1466 1467 1468 1468 1470 1470 1470 1470 1471 1471 1472 1472 1472 1473 1473 1474 1474 1474 1474 1474 1475 1475 1475 1475 1475 1475 1475 1476 1476 1475 1475 1475 1475
1463 1462 1461 1461 1460 1460 1460 1460 1459 1460 1461 1462 1462 1463 1464 1464 1465 1465 1465 1466 1466 1467 1467 1468 1468 1468 1468 1469 1469 1469 1469 1469 1470 1470 1470 1470 1470 1470 1470 1470 1470 1469 1469
1460 1458 1457 1457 1457 1456 1455 1454 1455 1455 1456 1457 1457 1458 1458 1459 1460 1460 1460 1460 1461 1461 1461 1462 1462 1463 1463 1463 1463 1463 1463 1463 1464 1464 1464 1464 1464 1463 1464 1464 1464 1464 1463
1456 1455 1454 1452 1452 1451 1451 1451 1450 1451 1451 1451 1452 1453 1453 1454 1454 1454 1454 1455 1455 1455 1456 1456 1457 1457 1457 1457 1457 1458 1458 1458 1458 1458 1458 1458 1458 1457 1458 1458 1458 1458 1458
1453 1452 1450 1449 1448 1448 1447 1447 1446 1446 1447 1447 1447 1448 1448 1448 1449 1449 1449 1449 1449 1449 1450 1450 1450 1451 1451 1451 1452 1453 1452 1452 1452 1452 1452 1452 1452 1452 1452 1452 1452 1453 1452
1450 1448 1447 1446 1446 1445 1444 1443 1442 1442 1442 1442 1442 1442 1442 1442 1442 1443 1443 1443 1443 1443 1443 1444 1444 1444 1445 1446 1446 1447 1447 1446 1446 1446 1446 1446 1446 1446 1446 1446 1446 1446 1446
1447 1445 1444 1444 1443 1442 1441 1440 1439 1438 1437 1437 1437 1437 1437 1437 1437 1437 1437 1437 1437 1437 1437 1438 1438 1438 1439 1440 1440 1441 1441 1441 1441 1440 1440 1440 1440 1440 1441 1440 1440 1440 1440
1445 1443 1442 1441 1440 1439 1438 1436 1435 1434 1433 1432 1431 1431 1431 1431 1431 1431 1431 1431 1432 1432 1432 1432 1432 1433 1433 1434 1434 1435 1435 1435 1435 1435 1435 1435 1435 1435 1436 1435 1434 1434 1434
1443 1441 1440 1439 1438 1436 1435 1433 1431 1430 1428 1428 1427 1426 1426 1425 1425 1425 1425 1426 1426 1426 1427 1427 1427 1427 1427 1428 1429 1430 1430 1429 1429 1429 1429 1430 1430 1430 1430 1430 1429 1428 1428
1440 1439 1438 1436 1435 1434 1432 1430 1428 1426 1425 1423 1422 1421 1421 1420 1420 1421 1421 1421 1421 1421 1422 1422 1422 1422 1422 1423 1424 1425 1425 1425 1425 1424 1424 1424 1424 1425 1425 1425 1424 1424 1424
1437 1436 1435 1434 1433 1431 1430 1427 1425 1423 1421 1419 1418 1417 1416 1416 1416 1416 1416 1416 1416 1417 1417 1417 1417 1417 1418 1418 1419 1419 1420 1421 1420 1419 1419 1419 1419 1420 1420 1419 1419 1419 1418
1436 1435 1433 1432 1431 1429 1427 1424 1422 1420 1418 1416 1414 1413 1413 1413 1412 1412 1412 1412 1412 1412 1412 1412 1412 1412 1413 1413 1414 1414 1415 1415 1415 1415 1415 1415 1415 1415 1414 1414 1414 1413 1413
1434 1433 1431 1430 1428 1427 1425 1423 1420 1418 1415 1413 1412 1411 1410 1409 1409 1409 1408 1408 1408 1409 1408 1408 1408 1408 1408 1409 1409 1409 1410 1410 1411 1410 1410 1410 1410 1410 1410 1409 1409 1409 1408
1433 1431 1430 1428 1426 1425 1423 1421 1418 1416 1413 1411 1409 1408 1407 1407 1406 1406 1406 1405 1405 1405 1405 1405 1405 1405 1404 1405 1405 1406 1406 1405 1406 1406 1406 1405 1405 1405 1405 1405 1405 1404 1404
1431 1430 1428 1426 1425 1423 1421 1419 1417 1415 1412 1409 1407 1406 1405 1405 1404 1403 1403 1402 1402 1402 1402 1402 1402 1402 1402 1402 1401 1402 1402 1402 1402 1402 1402 1401 1401 1401 1401 1401 1400 1400 1400